Location: Aboncourt
(47.7710°N, 5.9826°E)
Time: 03:18:47
(UTC+00:00)

Cosmos 1400 Rocket - Pass Details

Date: 05 July 2020
Orbit: 521 x 568 km, 81.2° (Epoch: 03 August)

Event Time Altitude Azimuth Distance (km) Brightness Sun altitude
Rises 21:08:20 0° 343° (NNW) 2,726 7.9 -11.7°
Reaches altitude 10° 21:10:35 10° 337° (NNW) 1,819 6.9 -11.9°
Maximum altitude 21:14:23 44° 265° (W) 753 3.7 -12.3°
Enters shadow 21:18:05 10° 193° (SSW) 1,767 5.0 -12.6°
